Location: Vlissingen
(51.4500°N, 3.5830°E)
Time: 13:31:37
(UTC+01:00)

N. Korean satellite - Pass Details

Date: 08 December 2021
Orbit: 447 x 491 km, 97.3° (Epoch: 21 January)

Event Time Altitude Azimuth Distance (km) Brightness Sun altitude
Rises 17:39:48 0° 189° (S) 2,511 10.7 -9.2°
Reaches altitude 10° 17:42:02 10° 200° (SSW) 1,630 9.9 -9.5°
Maximum altitude 17:45:09 30° 264° (W) 862 8.7 -9.9°
Drops below altitude 10° 17:48:16 10° 327° (NNW) 1,619 9.3 -10.4°
Sets 17:50:28 0° 339° (NNW) 2,491 10.2 -10.7°
